Regional Weather Roundup
Issued by NWS

Home | Current Version | Previous Version | Graphics & Text | Print | Product List | Glossary On
Versions: 1 2 3 4 5 6 7 8 9 10 11 12 13 14 15 16 17 18 19 20 21 22 23 24 25 26 27 28 29 30 31 32 33 34 35 36 37 38 39 40 41 42 43 44 45 46 47 48 49 50
000
ASUS43 KIND 271159
RWRIN

WEATHER ROUNDUP FOR INDIANA
NATIONAL WEATHER SERVICE INDIANAPOLIS IN
700 AM EST FRI FEB 27 2015

NOTE: "FAIR" INDICATES FEW OR NO CLOUDS BELOW 12,000 FEET WITH NO
SIGNIFICANT WEATHER AND/OR OBSTRUCTIONS TO VISIBILITY.

* - STATION DOES NOT REPORT WEATHER SUCH AS PRECIPITATION OR FOG.

+ - STATION NOT QUALITY CONTROLLED BY THE NATIONAL WEATHER SERVICE.
    USE DATA WITH CAUTION...ESPECIALLY DEWPOINT AND RELATIVE
    HUMIDITY OBSERVATIONS.

INZ001>003-010>013-019-020-271300-
NORTHWEST INDIANA

CITY           SKY/WX    TMP DP  RH WIND       PRES   REMARKS
GARY /AIRPORT/ PTCLDY     3  -8  60 W12       30.51R WCI -13
MONTICELLO +   CLEAR     -6 -10  83 SW5       30.50R WCI -17
6HR MIN TEMP:  -8; 6HR MAX TEMP:   6;

VALPARAISO     PTCLDY     3  -1  83 W6        30.48R WCI  -8

$$

LMZ046-743>745-271300-
SOUTHERN LAKE MICHIGAN

STATION/POSITION TIME  TEMP WIND        PRES
                       AIR  DIR/SP/G
                 (UTC) (F)  (DEG/KT/KT) (MB)
MICHIGAN CITY    1100    6  130/  5/  6   N/A

$$

INZ004-005-014>016-021>024-271300-
NORTH CENTRAL INDIANA

CITY           SKY/WX    TMP DP  RH WIND       PRES   REMARKS
ELKHART        CLEAR     -8 -15  71 CALM      30.49
GOSHEN         CLEAR     -7 -14  71 CALM      30.47R
6HR MIN TEMP: -13; 6HR MAX TEMP:  -1;

SOUTH BEND     CLEAR     -6 -13  71 CALM      30.48R
6HR MIN TEMP:  -8; 6HR MAX TEMP:   4;


$$

INZ006>009-017-018-025>027-271300-
NORTHEAST INDIANA

CITY           SKY/WX    TMP DP  RH WIND       PRES   REMARKS
ANGOLA *+      CLEAR    -13 -18  77 CALM      30.44R
FORT WAYNE     PTCLDY    -2  -8  76 CALM      30.48R
6HR MIN TEMP:  -4; 6HR MAX TEMP:   4;


$$

INZ028-029-035-036-043>045-051>053-271300-
WEST CENTRAL INDIANA

CITY           SKY/WX    TMP DP  RH WIND       PRES   REMARKS
CRAWFORDSVL +  CLEAR     -2  -9  70 W7        30.51R WCI -15
6HR MIN TEMP:  -3; 6HR MAX TEMP:   6;

GREENCASTLE +  MOCLDY     1  -4  78 CALM      30.51R
LAFAYETTE      CLEAR     -4  -8  83 SW3       30.53R
6HR MIN TEMP:  -5; 6HR MAX TEMP:   8;

TERRE HAUTE    MOCLDY     5  -1  76 NW5       30.54R WCI  -4
6HR MIN TEMP:   4; 6HR MAX TEMP:  10; 6HR PCP: TRACE;


$$

INZ030>032-037>040-046>048-054>057-064-065-271300-
CENTRAL INDIANA

CITY           SKY/WX    TMP DP  RH WIND       PRES   REMARKS
GREENWOOD *+   PTCLDY     1  -4  78 CALM      30.50R
INDIANAPOLIS   MOCLDY     2  -3  80 NW5       30.49R WCI  -8
6HR MIN TEMP:   2; 6HR MAX TEMP:   6;

-EAGLE CREEK   CLOUDY     3  -2  79 NW6       30.49R WCI  -8
6HR MIN TEMP:   1; 6HR MAX TEMP:   6;

KOKOMO *+      CLEAR      1  -2  85 W8        30.49R WCI -12
6HR MIN TEMP:   1; 6HR MAX TEMP:   7;

MT COMFORT *+  PTCLDY    -8 -18  59 CALM      30.48R
SHELBYVILLE    PTCLDY    -1  -5  82 CALM      30.49R FOG
6HR MIN TEMP:  -2; 6HR MAX TEMP:   7;


$$

INZ033-034-041-042-049-050-058-059-271300-
EAST CENTRAL INDIANA

CITY           SKY/WX    TMP DP  RH WIND       PRES   REMARKS
MUNCIE         MOCLDY    -2  -6  83 CALM      30.47R
6HR MIN TEMP:  -2; 6HR MAX TEMP:   4;


$$

INZ060-061-067>069-081>083-085>088-271300-
SOUTHWEST INDIANA

CITY           SKY/WX    TMP DP  RH WIND       PRES   REMARKS
EVANSVILLE     CLEAR     13   3  64 NW6       30.57R WCI   4
6HR MIN TEMP:  13; 6HR MAX TEMP:  18;

HUNTINGBURG *+ CLEAR      9   1  72 NW6       30.55R WCI  -1
6HR MIN TEMP:   9; 6HR MAX TEMP:  16;


$$

INZ062-063-066-070>080-084-089>092-271300-
SOUTH CENTRAL AND SOUTHEAST INDIANA

CITY           SKY/WX    TMP DP  RH WIND       PRES   REMARKS
BLOOMINGTON    CLEAR     -7 -11  83 CALM      30.50R
6HR MIN TEMP:  -7; 6HR MAX TEMP:   9;

SEYMOUR +      CLEAR      0  -6  78 CALM      30.52R

$$



USA.gov is the U.S. government's official web portal to all federal, state and local government web resources and services.